Location: Banff
(51.1667°N, 115.5667°W)
Time: 11:24:07
(UTC+00:00)

A-11 Canister half - Pass Details

Date: 30 November 2020
Orbit: 1524 x 1684 km, 47.3° (Epoch: 20 January)

Event Time Altitude Azimuth Distance (km) Brightness Sun altitude
Rises 14:21:07 0° 242° (WSW) 4,933 11.3 -9.4°
Reaches altitude 10° 14:24:20 10° 239° (WSW) 3,942 10.8 -8.9°
Maximum altitude 14:34:15 63° 162° (SSE) 1,827 9.7 -7.5°
Drops below altitude 10° 14:43:57 10° 85° (E) 3,861 12.1 -6.2°
Sets 14:47:04 0° 82° (E) 4,827 12.6 -5.7°
